Location: Newark
(7.0858°N, 171.3717°E)
Time: 08:47:07
(UTC+00:00)

S-56A Canister/Altair - Pass Details

Date: 03 December 2020
Orbit: 633 x 2499 km, 38.9° (Epoch: 27 January)

Event Time Altitude Azimuth Distance (km) Brightness Sun altitude
Rises 00:53:11 0° 197° (SSW) 5,489 12.3 59.9°
Reaches altitude 10° 00:58:00 10° 182° (S) 4,752 12.2 59.6°
Maximum altitude 01:07:35 22° 138° (SE) 4,191 11.8 58.9°
Drops below altitude 10° 01:17:46 10° 95° (E) 5,145 11.7 58.0°
Sets 01:23:09 0° 81° (E) 6,061 11.9 57.4°
